AirNav   Air Wisconsin Up To $57,000 Bonus
 
 1660 users online  

KGRE Greenville Airport
Greenville, Illinois, USA

GOING TO GREENVILLE?


FAA INFORMATION EFFECTIVE 20 JUNE 2019

Location

FAA Identifier: GRE
Lat/Long: 38-50-10.4000N / 089-22-44.0000W
38-50.173333N / 089-22.733333W
38.8362222 / -89.3788889
(estimated)
Elevation: 540.8 ft. / 164.8 m (surveyed)
Variation: 02W (2020)
From city: 3 miles S of GREENVILLE, IL
Time zone: UTC -5 (UTC -6 during Standard Time)
Zip code: 62246

Airport Operations

Airport use: Open to the public
Control tower: no
ARTCC: KANSAS CITY CENTER
FSS: SAINT LOUIS FLIGHT SERVICE STATION
NOTAMs facility: STL (NOTAM-D service available)
Attendance: 0730-1700
Pattern altitude: 1340.8 ft. MSL
Wind indicator: lighted
Segmented circle: no
Lights: MIRL RY 18/36 PRESET ON MED INTST; TO INCR INTST ACTVT - CTAF.
Beacon: white-green (lighted land airport)
Operates sunset to sunrise.

Airport Communications

CTAF/UNICOM: 123.05
WX AWOS-A: 123.05 (618-664-1939)
WX AWOS-A at VLA (14 nm NE): 122.8 (618-283-9595)
  • APCH/DEP SVC PRVDD BY KANSAS CITY ARTCC ON FREQS 124.3/269.15 (DECATUR RCAG)

Nearby radio navigation aids

VOR radial/distance  VOR name  Freq  Var
VLAr209/18.5VANDALIA VORTAC114.3004E
TOYr073/25.9TROY VORTAC116.0004E
ENLr334/27.0CENTRALIA VORTAC115.0004E

 
NDB name  Hdg/Dist  Freq  Var  ID
SALEM302/22.440001WSLO ... .-.. ---
CIVIC MEMORIAL097/31.826301WCVM -.-. ...- --

Airport Services

Fuel available: 100LL JET-A
Parking: hangars and tiedowns
Airframe service: NONE
Powerplant service: NONE
Bottled oxygen: NONE
Bulk oxygen: NONE

Runway Information

Runway 18/36

Dimensions: 4002 x 75 ft. / 1220 x 23 m
Surface: asphalt, in good condition
Weight bearing capacity: 
Single wheel: 7.5
Runway edge lights: medium intensity
RUNWAY 18  RUNWAY 36
Latitude: 38-50.470900N38-49.811675N
Longitude: 089-22.587583W089-22.583670W
Elevation: 540.1 ft.531.7 ft.
Traffic pattern: leftleft
Runway heading: 181 magnetic, 179 true001 magnetic, 359 true
Markings: nonprecision, in fair conditionnonprecision, in fair condition
Visual slope indicator: pulsating/steady burning VASI on left (3.00 degrees glide path)
Runway end identifier lights: yesyes
Touchdown point: yes, no lightsyes, no lights

Runway 9/27

Dimensions: 2822 x 250 ft. / 860 x 76 m
Surface: turf, in good condition
RUNWAY 9  RUNWAY 27
Latitude: 38-50.222495N38-50.218163N
Longitude: 089-23.238852W089-22.644395W
Elevation: 537.9 ft.537.7 ft.
Traffic pattern: leftleft
Runway heading: 092 magnetic, 090 true272 magnetic, 270 true
Touchdown point: yes, no lightsyes, no lights

Airport Ownership and Management from official FAA records

Ownership: Publicly-owned
Owner: THE GREENVILLE ARPT AUTHORITY
1374 SKY LANE
GREENVILLE, IL 62246
Phone 618-664-0926
Manager: LARRY KLEINER
1374 SKY LANE
GREENVILLE, IL 62246
Phone 618-664-0926
OR 618-664-3272

Airport Operational Statistics

Aircraft based on the field: 50
Single engine airplanes: 40
Multi engine airplanes: 1
Helicopters: 1
Ultralights: 8
    
Aircraft operations: avg 68/day *
80% local general aviation
8% transient general aviation
8% air taxi
4% military
* for 12-month period ending 31 May 2018

Additional Remarks

INTENSIVE PARACHUTE OPS.
AWOS 3 CLICKS ON CTAF.
DOOR CODE FOR BUILDING ENTRY IS CTAF, THEN #
FOR CD CTC KANSAS CITY ARTCC AT 913-254-8508.

Instrument Procedures

NOTE: All procedures below are presented as PDF files. If you need a reader for these files, you should download the free Adobe Reader.

NOT FOR NAVIGATION. Please procure official charts for flight.
FAA instrument procedures published for use from 20 June 2019 at 0901Z to 19 July 2019 at 0900Z.

 
IAPs - Instrument Approach Procedures
RNAV (GPS) RWY 18   download (202KB)
RNAV (GPS) RWY 36   download (208KB)
VOR/DME-A   download (148KB)
NOTE: Special Take-Off Minimums/Departure Procedures apply   download (201KB)

Other nearby airports with instrument procedures:

KVLA - Vandalia Municipal Airport (14 nm NE)
KSLO - Salem-Leckrone Airport (23 nm SE)
KENL - Centralia Municipal Airport (24 nm SE)
3LF - Litchfield Municipal Airport (24 nm NW)
KBLV - Scott Air Force Base/MidAmerica Airport (28 nm SW)
 
Loc | Ops | Rwys | IFR | FBO | Links
Com | Nav | Svcs | Stats | Notes
Area around KGRE (Greenville Airport)
 
Road maps at: MapQuest Bing Google
 
Aerial photo
WARNING: Photo may not be current or correct
Aerial photo of KGRE (Greenville Airport)
Photo courtesy of Cardinal Aviation Services Aerial Photography

Do you have a better or more recent aerial photo of Greenville Airport that you would like to share? If so, please send us your photo.

 
Sectional chart

 
Airport distance calculator
Flying to Greenville Airport? Find the distance to fly.

From to KGRE

Sunrise and sunset
Times for 25-Jun-2019
 Local
(UTC-5)
 Zulu
(UTC)
Morning civil twilight05:0310:03
Sunrise05:3510:35
Sunset20:2601:26
Evening civil twilight20:5801:58

Current date and time
Zulu (UTC)  25-Jun-2019 15:32:44
Local (UTC-5)  25-Jun-2019 10:32:44
 
METAR
KSLO 
22nm SE 
251515Z AUTO 24009KT 10SM CLR 26/18 A3003 RMK AO2 T02630176
KENL 
23nm SE 
251515Z AUTO 25010KT 10SM CLR 26/18 A3003 RMK AO2 T02600177
K3LF 
24nm NW 
251515Z AUTO 22011KT 10SM CLR 24/17 A3003 RMK AO2 T02420171
KBLV 
28nm SW 
251455Z 24006KT 10SM CLR 27/18 A3003 RMK SLPNO ALSTG ESTMD 5////
KALN 
31nm W 
251446Z 21005KT 10SM SKC 24/18 A3002
KMVN 
39nm SE 
251512Z AUTO 23009KT 10SM FEW001 A3004 RMK AO2 FZRANO $
KCPS 
40nm SW 
251453Z 24006KT 10SM CLR 25/17 A3002 RMK AO2 SLP161 T02500167 51011
K1H2 
42nm E 
251515Z AUTO 22008KT 10SM CLR 25/18 A3004 RMK AO2 T02540175
KTAZ 
42nm N 
251516Z AUTO 23011G16KT 10SM CLR 25/18 A3000 RMK AO2
TAF
KBLV 
28nm SW 
250800Z 2508/2614 VRB06KT 9999 SKC QNH2988INS BECMG 2515/2516 21010G15KT 9999 SKC QNH2995INS BECMG 2522/2523 VRB06KT 9999 SKC QNH2993INS TX31/2521Z TN19/2508Z
NOTAMs
Click for the latest NOTAMs
NOTAMs are issued by the DoD/FAA and will open in a separate window not controlled by AirNav.

 

 
 

FBO, Fuel Providers, and Aircraft Ground Support

  
 Business Name 
 
 Contact 
 
 Services / Description 
 
Fuel Prices
 
Comments
  
Greenville Airport 618-664-0926
[email]
Airport management, Aviation fuel, Aircraft parking (ramp or tiedown), Hangars, Hangar leasing / sales, Passenger terminal and lounge, Flight training, ...

More info about Greenville Airport
Phillips 66
100LL Jet A
AS $4.37 $3.40 
 Updated 20-Jun-2019
 
   4 read write
AS=Assisted/Self Service
Update Fuel Prices
 

Would you like to see your business listed on this page?

 If your business provides an interesting product or service to pilots, flight crews, aircraft, or users of the Greenville Airport, you should consider listing it here.  To start the listing process, click on the button below
 
Add a business
 

Other Pages about Greenville Airport

Update a link
 
Copyright © AirNav, LLC. All rights reserved. Privacy Policy  Contact